Location: Newark
(40.7066°N, 111.8219°W)
Time: 05:25:14
(UTC+00:00)

Courier 1B - All Passes

Search period start: 19 November 2019 00:00
Search period end: 29 November 2019 00:00
Orbit: 963 x 1209 km, 28.3° (Epoch: 17 November)

Date Brightness Start Highest point End Pass type
(mag) Time Alt. Az. Time Alt. Az. Time Alt. Az.
19 Nov - 11:28:37 10° SSE 11:30:07 11° SSE 11:31:36 10° SE visible
19 Nov - 13:18:02 10° SW 13:23:11 23° SSE 13:28:10 10° ESE visible
19 Nov - 15:10:52 10° WSW 15:16:23 28° S 15:21:45 10° SE daylight
19 Nov - 17:04:53 10° WSW 17:09:30 20° SSW 17:14:04 10° SSE daylight
20 Nov - 12:24:46 10° SSW 12:29:38 20° SSE 12:34:20 10° ESE visible
20 Nov - 14:17:13 10° SW 14:22:50 28° S 14:28:15 10° ESE daylight
20 Nov - 16:10:57 10° WSW 16:16:00 23° SSW 16:20:58 10° SE daylight
20 Nov - 18:07:09 10° SW 18:08:57 11° SSW 18:10:45 10° S daylight
21 Nov - 11:31:39 10° SSW 11:36:04 17° SSE 11:40:20 10° ESE visible
21 Nov - 13:23:35 10° SW 13:29:16 27° S 13:34:43 10° ESE visible
21 Nov - 15:17:05 10° WSW 15:22:29 26° S 15:27:44 10° SE daylight
21 Nov - 17:12:06 10° SW 17:15:30 15° SSW 17:18:52 10° S daylight
22 Nov - 10:38:53 10° S 10:42:30 14° SSE 10:46:01 10° SE visible
22 Nov - 12:30:01 10° SW 12:35:41 26° S 12:41:06 10° ESE visible
22 Nov - 14:23:15 10° WSW 14:28:56 28° S 14:34:25 10° SE daylight
22 Nov - 16:17:43 10° WSW 16:22:02 18° SSW 16:26:16 10° SSE daylight
23 Nov - 09:46:52 10° S 09:48:55 11° SSE 09:50:56 10° SE visible
23 Nov - 11:36:32 10° SW 11:42:05 23° SSE 11:47:22 10° ESE visible
23 Nov - 13:29:28 10° WSW 13:35:22 29° S 13:41:00 10° SE visible
23 Nov - 15:23:34 10° WSW 15:28:32 22° SSW 15:33:21 10° SSE daylight
24 Nov - 10:43:12 10° SSW 10:48:27 21° SSE 10:53:31 10° ESE visible
24 Nov - 12:35:43 10° SW 12:41:45 29° S 12:47:30 10° ESE visible
24 Nov - 14:29:33 10° WSW 14:35:01 25° SSW 14:40:15 10° SE daylight
24 Nov - 16:25:26 10° SW 16:27:58 12° SSW 16:30:28 10° S daylight
25 Nov - 09:50:04 10° SSW 09:54:50 18° SSE 09:59:27 10° ESE visible
25 Nov - 11:42:01 10° SW 11:48:07 28° S 11:53:55 10° ESE visible
25 Nov - 13:35:36 10° WSW 13:41:26 28° S 13:47:01 10° SE visible
25 Nov - 15:30:34 10° WSW 15:34:30 16° SSW 15:38:21 10° SSE daylight
26 Nov - 08:57:18 10° S 09:01:12 15° SSE 09:05:03 10° SE night (unlit)
26 Nov - 10:48:24 10° SW 10:54:28 27° S 11:00:15 10° ESE visible
26 Nov - 12:41:42 10° WSW 12:47:50 30° S 12:53:40 10° SE visible
26 Nov - 14:36:10 10° WSW 14:41:00 20° SSW 14:45:40 10° SSE daylight
27 Nov - 08:05:18 10° S 08:07:36 11° SSE 08:09:52 10° SE night (unlit)
27 Nov - 09:54:54 10° SW 10:00:48 24° SSE 10:06:28 10° ESE visible
27 Nov - 11:47:51 10° WSW 11:54:11 31° S 12:00:13 10° ESE visible
27 Nov - 13:41:59 10° WSW 13:47:28 24° SSW 13:52:42 10° SE visible
27 Nov - 15:39:50 10° SSW 15:40:23 10° SSW 15:40:56 10° SSW daylight
28 Nov - 09:01:35 10° SSW 09:07:08 21° SSE 09:12:30 10° ESE visible
28 Nov - 10:54:03 10° SW 11:00:30 30° S 11:06:40 10° ESE visible
28 Nov - 12:47:54 10° WSW 12:53:52 27° SSW 12:59:33 10° SE visible
28 Nov - 14:43:31 10° SW 14:46:55 14° SSW 14:50:14 10° S daylight
